Wind_Speed
75 80 84 88 92 95 96 96 96 95 93 92 91 90 89 87 86 84 83 82 80 79 79 78 77 76 75 74 73 72 72 71 70 69 68 67 67 67 67 66 66 66 66 66 66 66 66 66 66 67 67 66 65 65 65 65 65 66 66 67 67 68 70 69 64 61 63 62 56 56 57 58 60 57 55 57 59 59 61 62 57 55 56 56 58 60 60 60
72 75 79 84 88 91 94 96 96 96 95 94 92 91 90 88 87 86 84 83 81 80 79 78 77 76 75 74 73 72 71 70 69 68 68 67 66 65 65 65 64 64 64 64 64 64 64 64 64 65 66 66 65 65 65 65 65 66 67 68 69 71 71 68 65 64 65 64 60 61 60 60 62 59 56 59 60 59 61 61 57 56 56 57 58 59 59 58
74 73 75 79 84 87 91 93 95 96 95 94 93 92 91 89 88 86 85 83 82 81 80 79 77 76 75 74 73 72 71 70 68 68 67 66 65 64 63 63 62 62 62 62 62 62 63 63 63 64 65 65 65 65 65 65 66 67 68 69 71 72 70 67 67 67 67 66 64 64 62 62 64 60 59 62 63 63 62 59 57 57 57 58 59 60 61 59
78 76 74 75 79 83 87 90 93 94 95 94 94 92 91 89 88 87 85 84 82 81 80 79 77 76 75 74 72 71 70 69 67 67 66 65 64 63 62 61 61 61 61 61 61 61 61 62 63 63 64 65 65 65 65 65 66 67 69 71 73 72 69 68 68 68 68 68 67 65 63 65 64 61 63 66 66 67 64 60 59 60 60 62 62 62 62 61
80 79 76 74 75 79 83 87 90 92 93 94 93 92 91 89 88 86 85 83 82 81 80 78 77 76 74 73 71 70 69 67 66 67 65 64 63 62 61 60 60 59 59 59 59 60 60 61 62 63 64 64 65 65 66 66 66 67 69 72 73 71 71 71 68 68 70 70 68 66 66 66 65 65 67 67 69 70 67 62 61 63 64 65 65 64 65 64
81 81 80 76 74 76 79 84 87 89 91 92 92 91 90 89 87 86 84 82 81 80 78 77 76 75 73 72 70 69 68 65 66 66 64 63 62 61 60 60 59 59 59 58 58 59 59 60 61 62 63 64 65 66 66 67 67 67 69 72 73 72 73 72 69 70 71 70 70 69 68 68 67 69 69 68 71 73 70 63 64 67 67 67 67 67 67 66
80 82 82 79 75 74 77 80 85 88 89 90 91 90 89 87 86 85 83 82 80 79 77 76 74 73 71 70 69 69 67 64 66 65 63 62 61 61 60 59 59 58 58 58 58 58 58 59 60 61 62 64 66 66 67 67 67 68 69 70 72 72 73 73 71 72 73 72 72 71 70 70 70 71 70 69 73 77 70 64 67 70 68 68 68 68 68 67
80 82 82 81 77 74 75 78 82 86 88 89 89 89 87 86 85 83 82 80 79 77 75 74 73 71 70 69 68 68 65 64 66 64 62 62 61 61 60 59 58 57 57 57 57 58 58 58 59 60 61 63 65 65 67 68 69 70 70 70 71 72 73 74 73 73 74 73 73 72 72 72 71 72 72 71 75 78 70 67 71 71 70 71 70 69 69 69
80 81 82 81 78 75 75 77 80 84 86 87 87 87 85 84 83 82 81 79 77 75 74 73 71 70 68 67 67 66 64 65 66 64 63 62 61 60 59 58 57 57 57 57 57 57 58 58 59 59 60 62 63 64 66 69 70 70 71 72 72 72 73 73 73 73 74 74 74 74 73 73 72 73 73 74 77 77 70 71 73 70 71 72 71 71 70 70
79 81 81 81 79 76 75 76 79 82 85 86 86 85 84 82 81 80 79 77 75 73 72 71 69 68 67 66 66 64 64 66 65 64 63 62 61 60 59 58 57 57 57 57 57 57 58 58 59 59 60 61 62 63 65 68 69 70 72 74 74 73 73 73 73 73 73 74 74 74 74 73 73 73 73 76 78 74 70 71 73 71 71 72 72 72 71 71
79 80 80 80 78 77 76 76 78 81 83 85 84 84 82 80 79 78 77 76 74 72 70 69 68 67 66 66 65 63 65 66 64 64 63 62 61 60 58 58 57 57 56 57 57 58 58 58 59 60 61 61 61 62 64 67 68 69 71 73 74 74 74 74 74 74 73 73 74 73 73 73 73 73 74 77 76 73 70 71 74 71 69 72 73 72 71 70
78 79 79 79 77 77 77 77 78 80 82 84 83 82 81 79 77 76 75 74 73 72 71 69 68 67 66 65 63 63 66 65 63 64 63 62 61 60 59 58 57 57 57 57 58 58 59 59 60 61 61 61 62 63 63 65 67 68 69 71 72 74 74 76 76 75 74 75 74 72 73 74 74 74 76 77 75 73 70 71 76 70 65 69 72 72 71 68
77 78 78 77 77 77 78 77 78 80 81 82 82 81 79 77 76 75 74 73 72 72 71 69 68 67 65 64 63 64 65 64 63 64 63 63 61 60 59 57 57 57 57 57 58 58 59 60 61 62 61 62 65 63 62 64 65 66 68 69 71 72 74 77 76 74 76 77 74 73 75 76 76 76 76 76 76 74 69 71 77 72 68 70 72 70 68 66
74 76 76 76 76 77 78 78 78 79 81 81 81 79 78 76 74 74 73 72 71 70 69 69 67 66 65 64 63 64 65 64 63 63 63 62 61 60 58 58 58 57 57 57 58 58 59 60 61 62 62 65 66 63 63 65 65 65 67 68 70 71 74 75 73 72 76 76 73 73 75 77 78 77 76 76 77 74 69 72 77 75 72 73 73 71 68 66
72 73 74 75 77 78 78 78 78 79 80 80 80 78 76 75 73 73 72 71 70 69 68 68 66 66 64 63 64 64 64 64 63 63 63 62 61 60 58 58 58 57 57 57 57 58 59 60 61 62 63 65 65 64 66 67 66 66 66 66 68 70 73 73 70 70 75 74 70 73 75 75 78 79 76 74 75 71 70 75 77 75 73 73 72 68 67 65
70 72 73 75 77 78 78 78 77 78 79 79 79 77 75 73 72 72 71 70 69 68 68 67 66 65 64 64 65 64 63 63 62 63 62 61 61 60 59 59 58 57 57 57 57 57 58 59 60 61 62 63 64 65 67 67 66 67 66 66 67 68 70 71 69 67 71 71 67 71 73 72 76 79 76 72 71 69 70 75 76 73 71 71 69 66 64 63
68 71 73 74 76 77 78 77 77 77 78 79 78 76 74 72 71 71 70 69 69 68 67 67 66 65 64 65 64 62 61 62 62 62 62 61 60 59 59 59 58 57 57 56 57 56 57 57 57 58 59 60 62 63 64 65 66 67 66 66 67 68 68 69 68 65 66 67 66 68 69 71 75 77 74 71 70 68 69 72 72 71 70 68 67 65 63 61
68 70 72 74 75 77 76 76 75 76 77 78 77 75 73 71 71 70 69 69 68 68 68 67 66 65 64 64 62 59 60 62 62 62 61 60 60 59 59 59 58 57 56 56 55 54 54 53 53 54 55 56 58 60 62 63 64 66 66 65 65 66 66 68 69 66 63 63 65 67 66 68 74 74 71 70 68 67 67 68 68 68 68 65 65 64 62 58
67 70 72 72 73 74 74 74 74 75 76 76 76 74 72 71 70 69 68 68 68 68 67 66 66 66 64 63 61 59 62 63 62 61 60 60 59 59 59 59 58 56 55 55 53 52 50 50 49 49 50 53 55 57 58 60 62 64 63 62 61 61 63 67 69 66 63 60 62 68 67 66 69 70 70 69 67 65 64 64 65 65 65 64 63 61 59 54
67 70 71 70 70 71 72 72 72 73 74 75 75 73 71 70 69 68 68 68 68 67 66 67 67 65 63 63 61 60 62 62 60 60 60 59 59 59 59 59 57 56 54 53 51 49 48 47 46 46 47 49 52 54 54 56 58 59 58 57 59 59 61 65 66 67 64 60 60 65 66 64 66 67 67 67 66 67 64 60 62 63 61 63 62 59 57 52
67 69 69 68 66 67 69 70 70 71 72 73 74 73 71 70 69 68 68 67 67 66 66 66 66 64 63 62 61 61 62 61 59 60 59 59 59 58 59 58 57 55 54 52 48 47 47 44 43 43 44 46 48 49 49 52 55 54 53 56 58 58 58 60 64 66 63 58 57 61 63 63 62 63 64 63 63 66 65 58 58 61 59 60 61 58 56 53
67 67 67 64 63 65 66 67 68 69 70 71 73 72 72 71 69 69 68 66 66 66 65 66 65 64 63 62 62 62 62 60 59 59 59 59 58 58 58 57 57 55 54 50 46 46 46 44 43 42 42 42 43 43 46 50 51 50 51 54 55 55 56 57 59 63 61 56 53 56 60 60 59 59 59 59 59 62 65 59 54 57 58 57 59 58 56 56
65 65 63 61 61 63 64 65 66 67 68 70 71 72 72 71 70 69 68 66 66 65 65 65 65 64 62 62 62 62 61 60 59 58 59 59 58 58 57 57 56 54 52 49 47 47 47 46 43 41 41 39 38 40 43 46 47 46 48 50 49 50 52 52 54 57 58 54 48 49 55 55 55 56 53 55 57 57 61 61 54 53 56 54 56 57 55 56
63 63 60 57 58 61 62 62 63 64 66 67 68 71 72 72 70 69 68 66 66 65 65 65 65 63 62 62 62 62 61 60 58 58 59 59 58 57 57 57 56 53 51 49 48 47 48 48 44 41 42 39 38 40 39 41 42 42 43 43 44 46 46 48 50 52 52 50 43 44 51 52 50 51 50 52 55 54 56 59 56 51 53 54 54 56 55 56
61 61 58 54 55 58 60 61 61 62 63 64 66 69 71 71 71 70 68 67 66 66 66 65 65 63 62 62 62 62 61 60 59 58 59 59 58 57 57 57 54 52 51 49 49 49 49 49 44 42 44 42 42 42 39 39 40 39 39 40 42 43 43 44 47 49 48 46 45 45 47 49 49 49 51 53 54 55 55 57 57 53 52 54 54 54 54 55
61 60 56 52 54 57 58 59 60 60 60 61 63 66 69 70 70 69 68 68 67 67 66 66 65 63 63 62 62 62 61 60 59 58 59 59 58 58 57 55 54 53 52 51 50 50 50 50 45 43 45 45 46 45 43 43 42 41 41 43 44 42 41 43 48 50 47 46 49 48 47 49 51 51 54 58 58 58 58 57 58 56 54 55 54 52 52 54
60 59 55 52 54 56 56 57 58 58 58 60 61 63 66 68 69 68 68 68 68 67 66 65 64 64 63 62 62 62 60 60 59 59 60 60 57 57 56 55 55 54 53 51 51 51 51 51 47 45 46 47 48 48 47 46 46 46 47 47 44 41 44 48 51 51 49 49 52 51 51 52 53 54 58 63 62 60 61 60 59 60 59 56 53 53 52 52
60 58 54 51 53 55 56 56 56 56 57 58 59 61 64 66 67 67 67 68 67 65 65 65 64 64 63 62 62 61 59 61 60 59 59 59 56 56 56 55 54 54 53 51 51 52 52 52 49 46 48 50 50 50 50 48 47 50 52 49 44 44 49 52 52 52 52 53 52 53 58 58 56 57 60 64 66 62 62 62 60 60 59 56 54 54 52 50
59 57 54 51 53 54 55 56 55 55 56 56 58 60 63 64 64 65 66 65 64 64 65 65 64 63 62 62 61 60 60 62 60 58 59 59 57 57 57 56 54 54 53 51 52 53 51 51 51 47 48 52 52 52 51 48 49 53 53 49 47 49 53 53 53 54 56 55 53 56 62 62 58 59 61 64 67 64 61 61 61 58 56 55 54 52 50 48
59 56 53 52 53 54 55 55 54 55 55 56 59 61 62 63 63 64 64 63 63 63 63 64 63 61 61 61 60 60 61 60 59 59 60 60 58 58 57 56 54 54 54 53 52 54 52 51 51 50 50 54 54 53 52 50 51 54 54 52 52 54 55 55 55 57 59 57 55 58 63 64 60 59 61 62 64 64 59 56 56 54 51 52 50 46 45 44
59 55 52 52 54 55 54 55 54 54 56 57 59 61 62 62 62 62 61 61 62 62 62 63 61 60 60 60 60 59 59 59 58 59 60 59 58 57 57 55 54 54 55 54 52 53 54 52 52 53 53 54 53 53 53 52 52 55 56 57 57 57 58 58 58 59 60 58 58 61 62 61 59 59 60 59 58 58 53 49 50 49 45 45 43 39 37 35
59 56 53 52 54 55 54 55 55 55 56 58 59 61 62 61 61 61 60 60 61 60 60 60 59 60 60 59 59 58 58 58 58 59 59 58 57 57 57 56 54 53 54 54 52 54 56 54 52 52 54 54 53 54 54 52 53 55 57 58 59 59 60 59 59 61 60 60 60 61 59 57 57 56 56 54 51 49 46 43 42 38 33 32 32 31 29 23
59 56 53 52 53 55 55 55 56 57 57 58 59 61 61 59 61 61 60 62 61 58 57 56 56 58 59 59 59 57 57 57 57 58 58 57 57 57 56 56 54 53 54 55 54 54 56 56 53 52 55 56 53 54 56 54 54 56 56 58 58 60 60 58 59 61 62 62 60 59 56 53 52 50 48 44 40 40 39 31 27 25 21 21 21 22 22 18
60 57 55 53 52 54 56 56 56 57 58 59 60 61 60 59 60 61 62 63 61 58 58 58 58 58 58 59 59 56 55 56 56 56 57 57 57 57 56 56 55 55 57 57 56 56 56 56 55 54 55 55 53 54 56 55 55 55 56 57 57 59 60 59 60 62 62 61 58 54 49 46 46 42 38 34 28 29 27 20 20 21 19 20 17 15 18 20
60 58 56 55 53 54 57 58 57 58 59 59 60 60 59 60 61 62 63 61 58 59 60 60 60 60 59 59 59 57 56 57 57 56 57 58 58 58 58 58 58 58 59 58 57 57 57 56 56 56 55 54 54 56 57 55 55 55 56 57 57 59 61 61 60 61 60 57 54 49 43 43 44 36 28 26 24 22 20 20 24 24 22 23 22 19 19 21
59 58 57 57 55 54 56 58 58 59 59 59 61 61 60 61 62 61 60 57 57 60 60 61 62 62 62 61 60 59 58 60 60 59 60 61 62 62 62 62 61 60 61 60 59 59 57 57 58 58 56 55 55 57 57 55 55 56 57 58 59 60 60 59 58 57 55 51 47 44 39 40 42 34 25 23 22 23 26 28 30 28 27 26 24 20 18 21
57 57 58 57 56 55 55 56 58 59 59 60 62 62 61 61 60 58 58 58 59 60 60 61 63 62 63 63 63 63 62 63 65 64 65 66 66 66 66 65 64 62 62 62 61 60 58 58 59 58 56 55 56 58 57 55 56 57 57 57 58 58 57 55 53 52 51 46 41 39 36 38 39 33 28 27 24 25 28 30 30 30 30 27 23 21 22 29
56 56 57 56 57 58 57 57 58 58 60 61 61 61 61 60 59 58 60 60 60 60 61 64 64 63 64 64 65 66 65 66 68 68 69 69 69 68 67 66 64 62 62 61 60 59 57 57 59 58 56 58 59 58 57 56 56 55 54 54 54 53 53 52 50 48 46 41 36 34 33 33 32 27 27 31 31 29 30 31 31 30 31 31 30 31 35 42
57 57 57 56 56 58 58 58 57 58 59 60 60 60 60 59 59 60 61 61 62 63 65 66 64 63 65 66 68 69 66 67 70 70 70 70 68 67 66 65 63 62 61 60 59 59 57 58 59 58 57 58 59 57 55 54 53 52 52 50 50 50 50 49 47 43 39 35 32 31 29 27 26 26 29 33 34 33 34 37 36 33 33 35 37 40 42 46
58 58 58 57 57 57 57 57 57 58 58 59 59 59 58 58 59 61 62 63 64 65 66 66 63 63 66 68 69 68 64 65 68 68 69 67 64 64 64 61 60 59 58 58 59 58 57 58 59 58 57 57 57 56 55 54 52 51 50 48 48 49 49 46 41 37 36 33 29 30 29 25 22 24 26 30 33 34 37 40 39 36 35 35 38 42 44 45
60 61 61 60 59 58 57 56 56 56 56 57 56 55 55 57 58 59 61 62 63 64 64 64 62 62 65 66 66 64 61 62 65 66 66 64 61 62 62 60 59 58 58 58 58 57 57 58 58 57 57 57 56 56 56 53 50 49 49 48 48 49 48 44 37 32 32 31 29 31 31 24 19 20 22 25 30 35 38 40 41 39 39 37 37 39 41 43
59 59 60 58 57 55 53 53 52 52 53 54 52 51 53 55 55 57 58 58 59 59 59 60 59 60 62 62 62 62 59 59 63 65 64 61 59 61 61 61 60 60 59 59 58 57 57 57 57 56 56 56 56 55 53 49 47 47 49 48 47 45 43 39 33 28 28 28 29 30 28 24 22 24 25 26 30 36 39 39 39 38 39 40 39 38 38 39
54 54 54 52 51 50 49 50 50 50 51 50 49 49 50 51 51 52 53 53 54 54 55 56 56 56 58 59 60 59 58 59 62 64 63 60 59 61 61 61 61 60 60 60 59 58 58 57 56 56 54 54 54 52 48 47 47 46 46 46 43 40 36 31 27 23 23 24 25 26 25 23 23 27 30 31 33 38 42 42 40 38 38 39 40 39 39 40
48 49 48 47 47 46 47 48 48 48 47 46 46 46 46 46 47 48 49 49 50 50 52 52 52 53 55 56 57 57 56 57 59 60 60 58 58 60 61 60 60 59 58 58 59 58 57 56 55 54 53 53 53 50 47 47 46 44 42 42 39 35 30 28 26 23 20 20 23 27 25 20 21 26 31 33 35 38 42 44 44 42 40 39 40 40 40 39
45 46 44 44 44 44 46 47 46 44 44 43 43 43 43 44 44 45 46 46 46 47 49 49 49 51 52 53 55 54 53 55 56 57 58 57 56 58 58 57 57 56 56 58 58 56 54 52 50 49 49 50 49 47 45 44 44 42 41 39 36 33 30 27 26 24 21 18 21 25 24 21 23 29 33 35 37 37 39 42 44 45 43 40 41 41 41 40
43 43 41 41 41 42 44 44 41 40 40 41 41 41 41 42 42 42 43 44 45 46 47 48 49 50 51 52 54 54 54 56 57 56 57 56 55 56 55 55 54 54 54 54 53 52 51 48 47 46 47 47 46 45 44 43 42 40 39 37 34 33 32 29 27 26 24 19 19 23 25 26 27 30 35 39 39 37 36 38 41 44 43 40 38 38 40 40
41 40 39 39 39 39 40 39 37 37 38 39 40 40 40 41 41 42 43 44 45 46 48 49 50 51 52 53 55 56 56 57 57 57 56 55 54 53 52 52 50 50 50 49 49 50 49 48 48 49 49 49 48 47 46 44 42 41 39 38 35 33 32 31 29 27 24 22 22 23 25 27 30 32 36 40 41 38 36 36 39 42 44 42 38 35 37 39
37 36 36 36 36 37 37 36 36 37 37 38 40 40 40 41 41 42 43 44 46 47 48 49 50 52 53 53 54 55 55 55 55 54 53 51 49 49 49 48 46 47 49 49 50 50 50 49 50 50 51 50 49 48 47 46 45 44 42 40 37 34 31 31 31 28 25 25 26 25 26 30 34 37 37 38 39 38 36 36 37 38 41 42 41 37 36 38
35 34 34 35 36 36 36 36 36 36 37 38 39 39 39 40 40 42 43 44 46 47 48 49 49 50 50 50 51 51 50 50 50 48 47 47 47 47 47 47 47 48 50 50 50 51 52 53 52 52 52 51 50 49 48 47 47 46 44 43 42 38 32 29 32 31 28 28 30 32 33 33 35 38 39 39 40 40 40 39 37 36 36 38 40 39 36 35
34 34 34 34 35 35 35 35 35 36 36 37 37 37 38 39 40 41 42 43 43 44 44 44 44 44 44 44 45 45 45 45 45 44 45 46 47 47 47 47 49 51 52 52 52 54 56 56 54 53 53 53 53 51 49 49 48 46 46 46 46 43 36 31 33 35 33 32 33 36 37 35 34 38 40 40 41 42 44 43 41 38 34 33 36 37 35 33
34 34 34 33 33 32 33 33 34 34 35 35 36 37 37 38 38 38 38 38 38 38 38 39 39 39 39 40 40 40 41 43 44 45 47 47 48 49 49 49 51 53 54 55 55 57 58 58 56 55 55 55 54 51 50 51 49 47 49 50 47 45 41 36 36 38 38 35 35 37 39 37 36 38 40 41 42 43 45 44 43 40 35 31 31 33 33 32
33 32 31 31 30 31 32 32 33 33 34 35 35 36 35 35 34 33 33 33 33 34 35 35 37 37 38 38 39 39 40 42 44 46 48 49 49 51 52 52 54 55 56 57 58 58 59 59 58 56 56 56 54 51 51 53 52 50 51 51 47 45 43 40 39 42 43 41 40 40 42 42 40 40 41 42 43 44 46 45 44 43 40 35 31 30 31 32
Wind_Direction
249 248 246 245 244 243 242 242 242 242 242 242 243 244 244 244 245 245 246 246 247 248 248 249 249 250 250 251 251 252 252 253 253 253 253 253 254 254 255 255 256 256 257 257 256 256 256 256 256 255 254 253 252 251 250 250 250 250 250 249 248 247 248 248 249 251 254 253 248 248 248 249 252 252 253 254 255 256 257 257 258 260 261 261 262 263 264 265
251 249 247 246 244 243 242 242 241 241 241 242 242 243 243 244 244 245 245 246 246 247 248 249 249 250 250 251 251 251 252 252 252 252 252 252 253 254 255 255 256 256 256 256 256 256 256 256 255 255 254 253 252 250 250 250 250 250 249 249 248 248 248 250 250 249 251 253 251 249 249 251 252 253 253 254 254 255 257 259 260 260 262 263 263 264 264 265
254 251 248 246 245 243 242 241 241 241 241 241 241 242 242 243 244 244 245 245 246 247 247 248 249 249 250 250 251 251 251 251 251 251 252 252 253 253 255 255 255 255 256 256 256 256 256 255 255 254 254 253 251 250 250 249 249 249 249 249 249 249 250 250 250 250 251 253 252 250 251 252 253 254 254 254 255 255 256 260 262 262 262 263 263 263 263 264
256 253 250 247 245 244 242 241 241 240 240 240 240 241 241 242 242 243 244 244 245 246 247 247 248 249 249 250 250 250 250 250 250 251 251 251 252 253 254 255 255 255 256 256 256 256 256 255 255 254 254 253 252 250 249 249 249 249 249 249 249 250 250 250 251 251 252 252 252 252 252 252 254 255 255 255 256 257 257 259 261 262 262 262 262 263 264 264
255 254 252 248 246 244 243 241 241 240 240 240 240 240 240 241 241 242 242 243 244 245 246 246 247 248 248 249 249 249 249 249 249 250 250 251 252 253 254 255 255 256 256 257 257 257 256 256 255 254 254 253 252 251 250 250 250 249 249 249 249 250 250 250 251 252 252 253 253 253 252 253 254 254 255 257 258 259 258 258 261 262 262 262 263 264 264 265
253 253 253 250 247 245 243 241 240 240 239 239 239 239 239 240 240 241 241 242 243 243 244 245 246 247 247 248 247 248 248 248 248 249 249 251 252 253 255 255 256 257 257 257 257 257 257 256 255 254 254 253 252 251 250 250 250 250 250 251 250 250 251 250 250 251 253 253 253 253 253 253 254 254 255 257 260 260 259 259 261 263 263 263 264 264 264 265
251 251 251 250 247 245 243 241 240 239 238 238 238 238 239 239 239 240 240 241 241 242 243 244 244 245 246 246 246 246 246 246 247 248 249 250 252 253 255 256 257 257 258 258 258 258 257 257 256 255 254 253 252 252 251 251 251 251 250 251 252 251 251 251 250 251 253 254 254 254 254 254 255 256 256 258 260 261 260 260 261 262 263 263 264 265 266 266
249 249 249 249 247 245 242 241 239 238 237 237 237 237 238 238 238 239 239 240 240 241 242 242 243 244 244 245 245 245 245 245 246 247 248 250 252 254 255 257 258 259 259 259 259 259 259 258 257 256 255 254 253 253 252 251 251 251 251 252 252 252 252 252 252 252 253 254 255 255 255 256 256 257 258 258 260 261 262 262 261 262 264 265 265 265 266 267
248 247 247 247 246 244 242 240 238 237 236 236 236 236 236 237 237 238 238 238 239 240 240 241 242 242 243 244 244 244 244 244 246 247 248 250 251 253 255 257 258 259 260 260 260 260 260 259 258 257 256 255 254 253 253 252 252 252 252 252 252 253 253 254 254 253 254 254 255 256 257 257 258 259 260 260 260 262 263 263 263 264 265 266 266 266 267 267
246 245 244 244 243 242 240 238 237 236 235 234 235 235 235 236 236 237 237 237 238 239 239 240 241 241 242 243 243 243 243 244 245 247 248 249 251 253 255 257 258 260 260 261 261 260 260 260 259 258 257 257 256 255 254 254 253 253 253 253 253 254 254 255 255 255 255 255 256 257 257 258 259 260 260 260 261 262 263 265 265 264 265 267 267 267 268 268
245 243 242 241 240 239 238 237 235 234 233 233 233 233 234 234 235 236 236 236 236 237 238 239 240 241 241 242 242 242 243 244 245 247 248 250 251 253 255 257 258 260 261 261 261 261 261 260 259 259 258 258 258 256 255 255 255 254 254 255 255 255 255 255 255 255 256 256 257 257 259 259 259 259 260 261 262 263 264 265 266 267 267 267 266 267 269 269
242 240 239 238 237 236 236 235 234 233 232 231 232 232 232 233 234 234 235 235 235 236 237 238 239 240 241 241 242 242 242 244 245 247 248 250 251 253 255 257 259 260 261 262 262 262 262 261 261 260 259 259 258 257 257 258 257 255 255 256 255 255 256 255 255 256 257 257 257 258 259 259 259 259 260 262 263 263 265 267 267 266 266 266 267 268 269 270
239 237 235 234 233 233 233 233 231 231 230 230 230 230 231 231 232 233 233 234 234 235 236 237 238 239 240 241 241 241 242 244 245 247 248 250 252 253 255 257 259 260 261 262 263 263 263 263 262 261 261 259 258 258 259 258 258 257 256 255 256 256 256 256 256 257 258 257 258 259 260 260 260 260 261 263 263 264 265 267 267 265 265 266 268 269 269 271
235 233 231 230 229 229 230 230 229 229 228 228 228 229 229 230 231 232 232 232 233 233 234 236 237 238 239 240 240 240 242 243 245 246 248 250 251 253 255 257 259 260 261 262 263 264 264 264 263 262 261 259 259 259 258 257 257 257 257 256 256 256 256 256 257 258 258 258 259 259 260 261 261 261 261 263 264 265 265 265 265 265 266 266 268 269 269 270
230 228 226 225 225 226 227 228 227 227 227 227 227 227 228 228 230 231 231 231 232 232 233 235 236 237 238 239 240 240 242 243 245 246 248 249 251 253 255 257 259 260 262 263 264 265 266 266 265 263 261 260 260 258 257 257 257 258 258 258 257 257 257 257 257 257 259 259 259 260 260 261 262 261 260 262 265 266 265 263 265 266 267 267 268 268 269 269
225 223 222 221 222 224 225 225 225 225 225 225 225 226 226 227 229 230 230 230 231 231 232 233 235 236 237 238 239 240 242 243 245 246 247 249 251 253 255 257 259 261 263 265 265 266 267 267 266 265 262 261 259 257 257 257 257 257 258 258 258 258 259 259 257 257 259 260 259 260 261 261 262 262 261 262 264 264 263 264 265 267 267 267 267 267 267 267
221 219 218 218 219 221 223 223 223 223 223 224 224 225 225 226 228 228 229 229 230 230 231 232 234 235 236 238 239 240 242 244 244 245 246 248 251 253 255 258 260 262 264 265 267 268 269 268 267 265 263 261 259 258 257 257 256 256 256 257 258 259 260 261 259 256 258 260 259 258 261 261 261 262 263 262 262 262 262 264 266 266 266 267 267 266 266 266
217 215 214 215 217 219 221 221 221 222 222 222 223 224 224 226 227 228 228 229 229 229 230 232 233 235 236 238 240 241 242 243 243 244 246 248 250 253 256 258 260 262 264 266 268 270 270 269 268 266 264 262 259 257 256 256 256 256 256 257 259 260 260 260 260 257 256 258 260 259 258 261 263 263 263 262 262 262 262 264 265 266 266 266 267 267 266 266
213 212 212 213 215 218 219 220 220 221 221 221 222 223 224 225 226 227 228 228 228 229 230 231 233 234 236 238 239 240 241 242 243 244 246 248 250 253 256 258 260 263 265 266 269 271 271 270 269 267 264 261 259 257 256 256 256 256 257 257 258 259 260 260 260 259 256 256 259 260 259 260 263 265 264 264 263 262 262 264 265 266 267 266 266 266 266 264
210 210 210 210 213 216 218 218 219 220 220 220 220 222 223 225 226 227 227 228 228 229 229 231 233 234 236 238 239 240 242 242 243 245 246 248 250 253 256 258 261 263 265 266 270 271 270 271 270 268 265 262 259 258 258 258 257 257 258 258 256 256 258 260 261 260 258 257 258 261 262 261 263 266 266 266 265 264 262 264 266 266 267 268 266 265 266 262
208 208 207 208 211 215 217 218 218 219 219 219 220 221 222 225 226 227 227 228 228 229 229 231 233 234 236 238 239 240 241 242 243 245 246 248 250 253 256 259 261 263 265 266 270 271 269 271 270 268 266 263 261 261 260 258 257 257 257 256 256 257 258 261 263 262 260 259 260 261 263 263 264 266 268 268 268 267 264 262 266 267 266 267 267 265 264 260
206 206 205 206 209 213 216 217 217 218 219 219 219 220 222 224 225 226 227 227 229 229 230 232 233 235 236 238 239 240 242 243 243 245 247 248 251 253 256 259 261 263 264 266 269 270 269 269 270 269 267 267 266 263 259 256 257 258 257 257 259 259 260 261 264 265 263 260 261 265 266 266 266 266 268 270 268 268 267 263 262 265 265 265 266 265 263 260
204 203 203 204 208 212 214 216 216 217 218 219 219 220 222 224 225 226 227 227 229 230 230 232 234 235 236 238 240 241 242 243 244 245 247 249 251 253 256 258 260 262 265 267 268 269 268 268 269 271 270 270 268 262 258 259 261 259 259 260 261 261 262 263 264 266 266 264 264 267 267 267 268 268 268 269 268 268 269 266 261 261 263 263 263 264 262 260
201 200 200 203 208 211 213 215 216 217 218 219 220 221 222 224 225 226 227 228 229 230 231 232 234 235 236 238 240 241 242 243 244 245 247 249 251 253 255 257 260 262 265 266 266 267 268 267 269 271 271 270 267 264 264 264 263 262 262 263 263 263 263 265 266 267 269 269 265 263 264 266 267 268 268 267 267 267 268 268 265 261 262 262 261 262 262 260
198 197 197 201 207 211 212 214 215 216 218 219 220 222 223 224 225 227 228 228 229 230 231 232 234 235 236 238 240 241 243 244 244 245 247 249 251 253 254 257 260 261 263 264 265 266 267 268 269 270 270 269 267 267 267 266 265 265 265 264 263 263 265 268 269 269 270 269 265 259 262 267 266 267 267 266 267 266 266 268 268 265 263 262 262 262 262 262
195 195 195 200 206 209 211 213 214 216 217 219 221 222 224 225 226 227 228 229 230 231 232 233 234 236 237 238 240 242 243 244 245 245 247 249 250 252 254 257 259 260 261 263 265 266 267 267 267 268 269 269 267 267 266 265 266 265 264 263 263 266 270 270 269 269 269 269 269 265 264 267 268 270 270 269 267 266 266 266 268 268 264 263 264 264 263 263
193 194 194 200 206 208 210 212 214 215 216 218 221 223 224 225 226 227 229 230 231 232 233 235 236 237 238 239 241 242 243 245 245 245 246 249 250 253 254 256 257 259 260 262 264 265 266 267 266 267 268 268 267 267 266 265 266 266 264 263 266 270 270 267 267 269 270 270 271 272 270 268 269 271 272 271 269 268 269 268 268 268 268 268 268 266 264 263
192 193 195 199 205 207 209 211 213 214 216 218 220 223 224 225 226 227 229 231 232 233 235 236 237 238 239 240 242 243 243 244 245 246 248 250 251 252 253 254 256 258 260 261 263 264 265 267 266 266 267 268 267 266 266 266 267 267 266 266 268 267 265 266 268 271 272 272 273 277 276 271 270 271 272 273 272 271 271 272 271 271 272 272 269 267 266 265
191 193 195 199 203 206 208 210 212 213 215 217 220 222 224 224 226 227 229 230 231 233 235 236 237 238 239 240 242 242 243 244 246 246 248 249 249 250 252 253 255 257 259 261 262 263 265 267 267 266 266 266 265 265 266 267 267 266 267 268 266 263 264 268 271 272 273 274 277 279 277 274 272 272 272 273 274 273 272 274 274 274 274 272 269 267 267 265
190 193 197 200 202 205 207 209 211 213 214 217 220 222 223 224 225 227 228 229 231 233 235 236 237 238 239 240 241 242 243 245 246 246 247 248 249 251 252 253 254 256 258 260 262 264 265 266 267 266 263 263 265 266 267 266 266 266 267 267 264 265 267 269 271 273 275 277 278 278 277 276 275 274 273 272 273 275 275 276 276 275 274 271 269 268 266 264
190 193 198 202 203 204 207 209 210 213 214 217 221 223 224 224 225 226 227 229 230 232 234 236 237 238 239 240 241 242 243 244 245 245 247 248 249 250 252 253 253 254 258 260 261 263 264 263 264 265 264 265 266 266 266 265 265 266 267 266 266 268 269 271 273 274 276 278 278 277 277 278 277 275 273 272 273 275 276 275 273 273 272 271 270 266 262 263
191 193 198 204 205 204 206 208 210 212 215 217 221 223 225 225 225 226 226 228 229 230 233 236 237 238 239 240 240 241 242 243 244 245 246 247 248 249 250 251 253 255 258 260 260 261 263 264 264 265 266 265 265 266 266 266 267 267 268 269 270 270 270 272 274 275 277 278 278 279 279 278 277 275 275 274 274 274 272 271 271 273 270 267 266 261 256 257
192 194 199 205 208 206 206 208 210 212 215 218 221 224 225 225 227 227 227 228 229 229 232 234 236 238 238 239 240 240 241 243 243 245 246 247 247 248 249 251 253 255 258 259 261 261 263 264 264 263 264 265 266 267 268 268 268 269 270 270 271 271 271 272 274 276 278 279 280 280 279 278 276 274 273 275 274 271 270 268 268 268 261 255 255 253 248 234
194 195 199 206 210 209 208 209 211 213 215 218 222 224 225 226 228 228 228 229 230 230 231 233 234 236 237 239 240 239 241 242 242 243 244 245 246 248 249 252 253 256 258 259 261 261 262 263 263 262 262 265 266 266 268 269 269 270 270 270 271 271 272 273 275 277 278 280 281 280 279 277 274 273 271 270 265 260 260 257 250 245 241 244 240 233 229 220
196 197 200 205 209 211 210 210 212 214 216 219 222 224 226 227 228 229 230 231 232 233 233 234 235 237 238 239 240 240 240 242 242 242 244 245 246 248 250 253 255 256 259 260 260 261 262 262 262 262 261 263 265 266 268 270 271 271 271 271 272 272 274 275 276 278 279 280 280 279 277 272 270 270 264 257 247 235 231 236 239 228 223 234 232 222 221 226
197 199 201 204 208 212 212 212 214 216 218 220 223 224 225 227 229 231 232 233 234 235 235 237 237 238 239 240 241 241 241 243 243 243 246 247 248 250 252 254 256 258 259 260 260 260 261 261 262 262 263 264 265 266 268 270 271 271 271 272 273 274 275 276 277 278 279 280 279 275 271 266 265 263 257 252 242 227 222 227 232 225 219 226 227 222 225 238
196 200 204 205 208 213 215 215 216 218 220 222 225 226 227 228 230 232 233 233 234 236 236 238 239 239 241 241 242 243 243 245 247 246 248 250 251 252 254 256 257 258 259 259 260 260 260 261 263 264 265 265 265 266 269 270 270 272 273 274 274 275 276 276 277 278 278 278 275 271 265 261 262 261 256 251 242 229 224 224 225 224 220 219 218 217 219 230
197 201 205 208 212 215 218 219 219 221 223 225 227 228 229 230 230 232 233 233 234 236 237 237 238 239 241 242 243 244 244 246 248 249 250 251 253 254 255 256 257 257 258 258 259 259 259 260 262 263 264 265 266 268 270 271 272 274 274 273 274 275 276 277 277 278 278 276 271 266 261 258 259 257 246 241 238 232 228 226 225 221 216 212 210 209 211 218
199 202 205 209 214 217 219 221 222 224 226 227 229 230 231 231 231 232 233 234 234 236 237 238 239 240 243 244 245 245 245 247 249 251 252 253 254 255 256 257 257 257 257 257 257 258 258 259 260 262 263 265 268 270 271 272 273 273 272 272 273 274 276 278 278 276 274 271 266 261 259 255 253 250 240 234 233 230 229 230 228 222 216 213 211 211 214 219
202 204 206 210 214 218 220 222 224 226 228 230 231 232 233 233 233 234 235 235 236 237 239 240 241 242 244 245 246 247 247 249 251 252 252 253 253 255 256 256 257 257 257 257 257 257 258 259 261 262 264 265 268 270 270 271 272 272 272 271 271 273 274 276 277 273 268 267 266 263 262 258 252 251 245 233 228 226 227 230 229 225 222 220 218 217 221 226
204 206 209 212 216 219 222 223 226 228 230 232 233 234 235 235 236 237 237 237 238 239 240 242 242 242 244 246 247 248 247 248 250 251 251 251 251 252 253 253 254 254 255 255 257 258 258 260 261 263 264 265 267 268 271 273 273 273 272 271 271 272 272 272 272 268 263 262 262 262 263 258 246 245 244 235 232 232 231 229 228 228 228 226 223 222 226 231
208 210 213 216 219 223 225 227 229 231 232 234 235 236 236 237 237 238 238 239 239 240 241 242 242 242 244 245 246 247 246 247 248 250 250 250 250 251 251 251 252 253 254 255 256 258 259 260 261 262 263 265 267 269 271 272 271 270 271 272 272 271 270 270 269 266 262 260 258 259 260 252 235 227 228 232 238 241 239 233 228 229 231 229 226 226 228 232
210 213 216 219 222 225 227 229 231 232 233 234 234 235 236 236 237 238 239 239 239 240 240 241 241 241 243 244 245 245 245 245 246 248 250 249 249 250 250 251 251 252 253 255 255 256 257 258 259 261 263 265 266 267 268 268 267 269 271 272 273 273 269 266 264 263 260 259 258 255 253 250 240 224 217 224 234 239 239 237 234 233 233 231 228 228 228 228
210 213 216 218 221 223 226 227 229 230 231 233 233 235 236 236 236 237 238 238 238 238 239 240 240 240 241 242 244 244 244 244 245 247 248 248 248 249 249 250 250 251 251 252 253 253 255 256 259 261 262 262 263 265 266 267 268 268 268 268 270 269 264 255 253 254 250 251 255 250 242 244 246 232 221 225 234 238 238 238 237 234 234 232 229 229 230 230
210 212 214 216 218 221 223 226 226 227 229 231 232 233 233 234 234 234 235 236 237 237 238 238 239 239 241 242 243 244 244 244 244 245 246 246 246 247 248 248 249 249 249 250 252 254 255 256 258 259 259 260 262 264 265 265 266 267 266 267 264 260 255 248 246 246 242 245 255 250 237 234 243 240 233 232 236 238 239 239 239 236 235 234 232 231 234 236
209 211 212 214 216 219 222 225 225 225 227 228 229 230 231 232 233 234 235 237 237 238 238 239 239 240 241 242 244 244 244 244 245 245 245 245 245 246 246 246 246 247 248 250 252 253 253 253 253 253 255 256 258 260 261 263 266 267 266 264 260 256 251 246 244 242 237 238 250 252 243 239 245 247 242 237 236 238 240 241 241 240 237 236 236 236 237 238
208 209 210 213 214 217 221 223 223 224 226 228 230 231 232 234 236 237 238 239 239 240 240 240 241 241 242 243 244 245 245 245 246 245 245 245 244 244 244 243 243 244 246 247 248 249 250 250 250 251 253 255 256 259 261 263 264 263 260 258 258 258 252 245 242 239 233 231 239 248 247 243 245 249 248 242 238 239 243 245 243 241 240 239 238 240 240 238
207 209 210 212 214 217 221 223 225 226 229 232 234 235 235 237 238 239 240 241 242 243 243 243 243 243 244 244 244 245 245 245 245 245 244 244 242 241 241 240 240 241 243 244 246 248 249 250 250 251 253 255 256 257 260 261 261 259 257 256 257 258 254 245 237 229 225 229 234 238 240 239 241 246 250 248 243 240 244 247 245 243 244 242 240 241 243 241
207 210 212 215 217 221 224 226 228 230 232 234 236 237 238 239 240 241 242 243 244 245 245 245 244 244 243 243 242 242 242 242 242 241 240 239 238 237 238 238 239 240 241 243 245 247 248 248 249 251 252 254 255 255 256 258 258 258 257 256 255 254 251 243 233 223 220 228 232 235 240 243 243 244 247 249 246 243 245 247 248 249 248 246 242 242 243 242
209 212 216 219 221 224 227 229 231 233 234 235 237 238 240 241 243 244 245 245 245 245 243 242 241 241 240 239 239 238 237 237 237 237 237 238 237 237 237 237 238 240 241 242 243 245 247 248 248 250 252 252 253 254 254 255 256 255 255 254 253 251 248 242 233 224 221 225 232 237 242 246 247 246 246 247 247 246 247 248 250 252 251 247 243 242 241 239
212 216 219 221 222 225 228 230 232 233 234 236 238 241 243 245 245 245 244 243 242 241 239 238 237 235 234 234 234 234 233 233 233 234 236 238 238 238 238 238 238 240 241 241 241 243 246 248 248 249 250 251 251 253 254 255 254 251 250 251 251 250 247 241 235 229 225 225 230 237 240 240 243 245 247 249 249 248 248 248 249 251 252 249 245 243 240 235
214 218 221 223 224 226 228 229 230 233 236 239 242 244 244 244 242 241 239 238 238 237 236 235 233 232 232 232 232 231 231 232 233 235 237 238 238 240 241 240 241 241 242 242 243 243 246 248 249 249 250 252 252 253 254 255 253 249 248 249 247 246 245 242 237 234 230 227 228 234 236 235 237 242 244 247 249 248 248 249 248 249 251 251 248 245 241 234
Height
10606 10609 10611 10614 10617 10622 10626 10630 10634 10638 10642 10646 10650 10654 10657 10661 10664 10668 10672 10675 10679 10682 10685 10688 10691 10695 10698 10701 10704 10706 10708 10710 10713 10715 10717 10719 10720 10722 10724 10725 10726 10727 10728 10729 10731 10733 10734 10735 10737 10739 10741 10744 10746 10749 10750 10751 10753 10754 10756 10754 10755 10753 10748 10754 10766 10770 10763 10767 10783 10783 10781 10778 10776 10783 10787 10785 10783 10783 10781 10781 10792 10795 10793 10795 10794 10792 10792 10795
10597 10599 10602 10604 10607 10612 10616 10620 10625 10629 10633 10637 10641 10645 10649 10653 10656 10660 10664 10668 10671 10674 10678 10681 10685 10688 10691 10695 10698 10699 10702 10704 10706 10709 10710 10712 10715 10716 10718 10719 10720 10721 10722 10724 10725 10726 10728 10729 10731 10732 10734 10736 10739 10742 10743 10745 10747 10747 10748 10748 10747 10744 10744 10755 10763 10763 10757 10761 10774 10775 10776 10776 10771 10779 10784 10778 10777 10779 10775 10778 10790 10790 10789 10789 10788 10787 10786 10790
10587 10590 10592 10595 10598 10602 10606 10610 10615 10619 10624 10628 10632 10636 10640 10644 10648 10652 10656 10660 10664 10667 10671 10674 10678 10682 10685 10689 10691 10693 10695 10698 10701 10703 10704 10707 10709 10710 10711 10713 10714 10716 10717 10718 10719 10720 10722 10723 10724 10726 10728 10729 10732 10734 10736 10738 10739 10740 10741 10741 10738 10738 10746 10753 10753 10755 10755 10757 10764 10767 10773 10770 10767 10776 10777 10770 10771 10772 10772 10779 10785 10784 10784 10783 10782 10781 10781 10785
10577 10580 10583 10586 10588 10592 10596 10601 10605 10610 10614 10619 10623 10627 10632 10636 10640 10644 10648 10653 10656 10660 10663 10667 10672 10675 10678 10682 10685 10687 10689 10692 10696 10696 10698 10701 10703 10704 10706 10707 10708 10710 10711 10712 10713 10714 10715 10717 10718 10720 10721 10723 10725 10727 10729 10731 10732 10734 10735 10733 10731 10736 10743 10745 10746 10750 10750 10751 10756 10762 10766 10764 10766 10771 10766 10764 10765 10764 10770 10778 10780 10778 10779 10776 10775 10776 10777 10781
10567 10569 10573 10576 10579 10583 10587 10591 10596 10601 10605 10609 10614 10618 10623 10627 10632 10637 10641 10645 10649 10653 10656 10660 10665 10668 10673 10676 10679 10681 10682 10688 10690 10689 10692 10695 10696 10698 10700 10701 10703 10704 10705 10706 10708 10708 10709 10710 10712 10713 10714 10716 10718 10720 10722 10724 10725 10728 10728 10725 10727 10733 10734 10738 10744 10743 10742 10745 10751 10756 10758 10758 10763 10763 10760 10760 10758 10757 10765 10775 10775 10771 10771 10770 10771 10772 10772 10775
10557 10559 10562 10567 10571 10574 10578 10582 10587 10591 10596 10600 10604 10609 10614 10619 10624 10629 10633 10637 10641 10645 10649 10653 10658 10662 10666 10669 10673 10674 10677 10684 10682 10682 10688 10689 10691 10693 10694 10696 10697 10699 10700 10701 10702 10702 10703 10704 10705 10707 10708 10710 10711 10713 10715 10717 10720 10721 10721 10720 10722 10728 10727 10732 10739 10736 10736 10741 10744 10749 10751 10753 10756 10755 10755 10757 10752 10748 10758 10771 10770 10762 10764 10765 10765 10767 10767 10770
10547 10549 10552 10556 10561 10565 10569 10573 10577 10582 10586 10591 10595 10600 10606 10611 10616 10621 10626 10630 10634 10638 10641 10647 10651 10656 10660 10662 10666 10668 10673 10679 10674 10677 10683 10683 10685 10687 10688 10690 10691 10693 10694 10695 10696 10696 10697 10698 10699 10700 10701 10702 10704 10707 10709 10711 10713 10713 10715 10715 10716 10721 10722 10725 10732 10731 10731 10735 10737 10741 10744 10746 10749 10747 10750 10754 10745 10737 10753 10767 10761 10754 10758 10760 10760 10761 10763 10765
10536 10538 10542 10546 10551 10556 10560 10564 10568 10573 10577 10582 10587 10592 10597 10603 10608 10613 10618 10622 10627 10631 10635 10640 10644 10649 10653 10656 10659 10662 10669 10671 10667 10672 10677 10677 10679 10681 10682 10684 10685 10687 10688 10688 10689 10690 10691 10692 10692 10693 10695 10696 10698 10702 10703 10704 10705 10706 10709 10710 10711 10714 10715 10718 10724 10726 10726 10729 10731 10734 10737 10739 10742 10741 10743 10747 10736 10731 10750 10757 10751 10751 10752 10752 10754 10755 10757 10759
10524 10527 10531 10536 10541 10547 10551 10555 10559 10563 10568 10573 10578 10584 10589 10595 10600 10605 10610 10615 10620 10624 10628 10633 10638 10642 10646 10650 10653 10658 10664 10663 10662 10668 10670 10671 10673 10675 10677 10678 10680 10681 10682 10682 10683 10684 10684 10686 10686 10687 10689 10689 10692 10696 10696 10695 10698 10702 10703 10704 10705 10707 10709 10712 10716 10719 10721 10722 10724 10727 10730 10732 10735 10735 10737 10736 10728 10731 10745 10745 10743 10749 10747 10746 10747 10748 10751 10753
10512 10516 10520 10525 10531 10537 10542 10546 10550 10555 10559 10564 10570 10576 10582 10587 10593 10598 10603 10608 10613 10617 10621 10626 10631 10635 10640 10644 10647 10654 10658 10655 10658 10662 10662 10665 10667 10669 10672 10673 10674 10674 10675 10676 10677 10678 10679 10680 10679 10681 10682 10683 10687 10689 10688 10688 10692 10697 10696 10696 10699 10702 10704 10707 10709 10711 10714 10716 10718 10721 10723 10726 10728 10729 10728 10724 10723 10731 10740 10737 10735 10742 10743 10740 10740 10741 10744 10746
10500 10504 10509 10515 10521 10527 10532 10537 10541 10546 10551 10556 10562 10568 10574 10580 10586 10591 10596 10601 10606 10611 10615 10620 10625 10629 10634 10637 10642 10649 10649 10648 10653 10655 10656 10660 10661 10664 10666 10667 10668 10669 10669 10670 10671 10672 10673 10674 10674 10675 10676 10679 10682 10682 10682 10682 10686 10690 10689 10691 10694 10695 10697 10699 10700 10703 10708 10709 10711 10715 10717 10719 10720 10722 10719 10715 10721 10728 10733 10732 10727 10734 10738 10733 10732 10734 10737 10741
10487 10492 10498 10504 10511 10517 10522 10527 10532 10537 10542 10548 10555 10561 10568 10573 10579 10584 10589 10594 10599 10604 10608 10613 10618 10623 10627 10631 10638 10642 10640 10643 10648 10649 10650 10653 10655 10659 10660 10661 10663 10663 10663 10664 10665 10666 10667 10668 10668 10669 10671 10675 10674 10674 10678 10678 10679 10683 10683 10685 10686 10688 10690 10690 10692 10698 10701 10700 10705 10710 10709 10709 10711 10712 10711 10710 10717 10722 10729 10726 10718 10727 10730 10724 10726 10728 10730 10735
10474 10480 10487 10494 10501 10507 10512 10518 10524 10529 10535 10541 10548 10554 10561 10567 10572 10577 10583 10588 10593 10597 10601 10607 10612 10616 10621 10626 10632 10633 10633 10639 10641 10642 10645 10647 10650 10653 10654 10656 10657 10657 10658 10659 10659 10660 10661 10662 10662 10663 10667 10667 10664 10670 10675 10671 10671 10675 10676 10678 10679 10681 10681 10680 10687 10694 10692 10692 10700 10704 10700 10699 10701 10704 10706 10707 10709 10717 10727 10718 10707 10717 10721 10717 10721 10722 10725 10731
10462 10469 10476 10484 10491 10497 10503 10509 10515 10521 10527 10534 10541 10548 10554 10560 10566 10571 10576 10581 10586 10591 10595 10600 10605 10610 10615 10620 10624 10626 10628 10632 10635 10637 10639 10641 10644 10646 10649 10650 10650 10651 10652 10653 10654 10654 10655 10656 10656 10658 10661 10658 10659 10667 10666 10662 10665 10667 10668 10671 10672 10673 10672 10674 10684 10688 10681 10685 10696 10695 10691 10691 10692 10697 10701 10700 10701 10712 10721 10707 10697 10708 10714 10712 10715 10717 10720 10725
10450 10458 10466 10474 10481 10487 10494 10501 10507 10514 10520 10527 10534 10541 10547 10553 10559 10565 10570 10575 10580 10585 10589 10594 10600 10604 10609 10614 10617 10620 10623 10626 10629 10632 10633 10635 10638 10641 10643 10644 10644 10645 10646 10648 10648 10649 10649 10650 10650 10652 10653 10651 10654 10660 10656 10655 10660 10661 10662 10665 10665 10665 10664 10668 10680 10681 10672 10680 10691 10685 10683 10685 10682 10685 10694 10697 10699 10707 10708 10695 10692 10701 10706 10707 10709 10712 10714 10718
10440 10448 10457 10465 10472 10478 10485 10493 10500 10507 10513 10520 10528 10535 10541 10547 10553 10558 10563 10569 10573 10578 10583 10588 10593 10598 10604 10607 10609 10613 10618 10621 10624 10626 10627 10630 10632 10635 10636 10637 10638 10640 10641 10642 10642 10643 10644 10644 10644 10645 10646 10646 10648 10650 10649 10651 10653 10654 10656 10657 10658 10659 10658 10661 10672 10675 10667 10674 10684 10676 10675 10679 10671 10672 10686 10696 10696 10697 10694 10687 10689 10695 10697 10700 10702 10706 10708 10711
10432 10440 10448 10456 10464 10471 10478 10485 10493 10500 10507 10514 10521 10528 10535 10541 10547 10552 10557 10562 10567 10573 10577 10582 10588 10594 10598 10599 10602 10610 10615 10615 10617 10619 10622 10625 10627 10629 10629 10630 10633 10634 10635 10637 10637 10638 10638 10638 10639 10638 10639 10640 10641 10642 10643 10645 10645 10647 10649 10651 10651 10652 10653 10654 10660 10669 10665 10666 10673 10670 10669 10669 10661 10664 10679 10688 10688 10688 10686 10682 10683 10686 10689 10692 10694 10698 10702 10706
10424 10432 10441 10449 10457 10464 10471 10479 10486 10493 10500 10508 10516 10523 10529 10535 10541 10546 10552 10557 10562 10566 10571 10578 10583 10587 10592 10594 10600 10607 10607 10606 10609 10613 10616 10619 10621 10623 10623 10625 10627 10628 10630 10631 10631 10633 10632 10633 10633 10632 10634 10634 10635 10635 10636 10638 10639 10639 10643 10647 10647 10646 10649 10645 10647 10659 10663 10660 10661 10662 10665 10660 10653 10659 10670 10676 10679 10681 10679 10677 10677 10677 10680 10685 10686 10689 10695 10699
10418 10426 10435 10443 10451 10458 10465 10473 10480 10488 10495 10503 10510 10517 10523 10529 10535 10541 10546 10551 10555 10560 10567 10573 10576 10581 10587 10590 10594 10599 10597 10598 10604 10608 10611 10614 10616 10618 10618 10619 10621 10623 10625 10625 10626 10627 10627 10627 10627 10627 10628 10628 10628 10628 10630 10632 10633 10633 10638 10643 10643 10640 10640 10637 10638 10648 10655 10658 10655 10652 10657 10657 10649 10651 10659 10665 10670 10672 10672 10671 10671 10671 10671 10676 10680 10681 10685 10691
10413 10421 10430 10438 10446 10453 10460 10468 10475 10483 10490 10498 10505 10512 10518 10524 10530 10535 10540 10544 10549 10556 10562 10566 10569 10576 10581 10583 10588 10592 10590 10593 10600 10602 10606 10608 10610 10612 10612 10614 10616 10618 10619 10620 10622 10622 10621 10621 10622 10622 10622 10622 10622 10623 10627 10627 10626 10629 10634 10635 10634 10634 10633 10631 10632 10637 10646 10653 10650 10645 10648 10651 10647 10646 10649 10656 10659 10660 10665 10667 10663 10664 10665 10666 10672 10676 10678 10684
10408 10416 10425 10434 10441 10448 10455 10463 10471 10478 10485 10493 10500 10507 10513 10518 10525 10529 10533 10539 10545 10551 10556 10559 10564 10571 10575 10578 10583 10584 10583 10589 10594 10597 10600 10602 10604 10607 10608 10609 10611 10612 10612 10615 10618 10616 10615 10617 10617 10616 10616 10617 10617 10620 10623 10621 10620 10625 10628 10625 10626 10630 10630 10627 10625 10627 10639 10646 10643 10640 10640 10643 10644 10643 10643 10647 10649 10647 10653 10662 10658 10656 10661 10659 10662 10669 10671 10675
10404 10413 10421 10430 10438 10444 10452 10459 10467 10474 10481 10488 10495 10502 10508 10513 10519 10523 10528 10535 10539 10545 10551 10554 10559 10565 10570 10574 10575 10575 10579 10584 10588 10592 10594 10596 10599 10602 10603 10604 10605 10606 10606 10610 10613 10611 10610 10611 10611 10612 10612 10613 10615 10617 10616 10613 10616 10621 10621 10619 10622 10625 10624 10624 10621 10619 10629 10638 10638 10636 10633 10635 10637 10638 10639 10639 10640 10638 10639 10652 10655 10650 10653 10656 10654 10659 10664 10665
10401 10410 10418 10427 10434 10441 10448 10456 10463 10469 10476 10483 10491 10497 10502 10507 10513 10518 10523 10529 10534 10540 10545 10549 10553 10559 10564 10567 10568 10570 10574 10578 10583 10587 10588 10591 10594 10596 10598 10598 10598 10601 10602 10605 10607 10605 10605 10605 10607 10609 10609 10611 10612 10611 10611 10610 10613 10616 10615 10615 10618 10619 10618 10618 10617 10615 10619 10629 10635 10631 10625 10628 10629 10631 10634 10631 10631 10634 10631 10637 10647 10646 10645 10649 10649 10650 10656 10657
10399 10407 10416 10424 10431 10438 10445 10452 10459 10466 10472 10480 10486 10492 10496 10502 10508 10513 10518 10524 10529 10534 10539 10543 10547 10553 10558 10561 10562 10565 10569 10574 10578 10581 10582 10585 10589 10591 10592 10592 10593 10597 10598 10600 10601 10600 10599 10599 10604 10606 10604 10607 10607 10605 10608 10608 10608 10611 10611 10612 10613 10612 10613 10613 10612 10613 10615 10621 10627 10624 10619 10623 10625 10624 10627 10625 10624 10628 10626 10626 10635 10641 10640 10642 10643 10644 10648 10649
10397 10405 10413 10421 10428 10435 10442 10449 10455 10462 10469 10476 10482 10486 10491 10497 10502 10508 10513 10518 10523 10528 10533 10538 10542 10548 10552 10554 10557 10560 10565 10568 10571 10575 10577 10580 10583 10585 10586 10587 10590 10592 10592 10593 10594 10595 10594 10595 10601 10602 10600 10602 10602 10602 10605 10604 10604 10607 10608 10608 10608 10608 10610 10611 10608 10608 10612 10615 10617 10617 10617 10618 10620 10620 10619 10618 10618 10620 10622 10622 10624 10632 10635 10635 10637 10639 10641 10641
10394 10403 10411 10418 10425 10432 10439 10445 10452 10459 10466 10472 10477 10482 10486 10492 10497 10503 10508 10512 10517 10522 10527 10532 10538 10543 10545 10548 10552 10555 10559 10562 10566 10570 10571 10573 10578 10579 10581 10583 10584 10585 10586 10588 10589 10590 10589 10591 10596 10598 10597 10597 10597 10598 10600 10600 10601 10603 10604 10603 10604 10606 10608 10607 10603 10602 10607 10609 10608 10611 10615 10614 10614 10616 10612 10609 10612 10613 10614 10618 10619 10622 10626 10628 10631 10635 10637 10636
10393 10401 10408 10415 10422 10429 10435 10442 10449 10457 10463 10468 10473 10477 10481 10487 10492 10498 10502 10506 10512 10518 10523 10528 10533 10536 10539 10544 10546 10549 10555 10557 10560 10564 10564 10567 10573 10574 10576 10577 10578 10579 10581 10583 10585 10585 10584 10585 10591 10594 10593 10592 10592 10593 10595 10596 10598 10598 10598 10598 10602 10605 10603 10599 10597 10598 10602 10603 10603 10605 10607 10608 10610 10610 10605 10600 10603 10607 10608 10611 10615 10615 10617 10622 10627 10629 10631 10632
10391 10399 10406 10413 10419 10426 10433 10440 10446 10453 10458 10463 10468 10472 10476 10482 10487 10493 10496 10501 10509 10515 10518 10522 10526 10530 10534 10538 10541 10546 10550 10550 10553 10559 10559 10563 10568 10568 10569 10571 10573 10574 10575 10578 10580 10579 10580 10580 10585 10589 10588 10586 10587 10588 10589 10592 10594 10592 10591 10595 10601 10600 10594 10592 10593 10595 10596 10597 10602 10602 10597 10599 10604 10603 10600 10594 10593 10600 10603 10603 10607 10610 10611 10616 10620 10621 10624 10626
10390 10398 10404 10410 10416 10423 10430 10436 10443 10449 10454 10459 10463 10466 10471 10476 10482 10487 10491 10499 10506 10509 10511 10515 10520 10525 10529 10532 10536 10540 10542 10543 10549 10554 10554 10557 10561 10562 10563 10565 10568 10568 10569 10573 10573 10573 10576 10576 10578 10584 10583 10579 10580 10582 10584 10589 10590 10585 10585 10591 10593 10591 10588 10589 10590 10590 10589 10593 10599 10596 10587 10589 10597 10597 10593 10589 10586 10592 10598 10597 10599 10603 10605 10606 10609 10613 10617 10619
10388 10396 10402 10407 10413 10420 10427 10433 10440 10445 10451 10455 10457 10461 10466 10471 10477 10481 10487 10496 10500 10502 10505 10510 10515 10520 10523 10527 10531 10534 10535 10539 10545 10547 10547 10550 10555 10556 10557 10560 10563 10563 10563 10567 10567 10567 10570 10572 10573 10576 10576 10573 10575 10578 10580 10583 10583 10580 10581 10584 10584 10584 10584 10585 10586 10584 10583 10589 10593 10587 10580 10582 10589 10589 10585 10584 10582 10584 10591 10594 10592 10594 10595 10596 10600 10605 10608 10610
10387 10394 10400 10405 10410 10418 10424 10430 10436 10441 10446 10449 10453 10457 10461 10467 10473 10478 10485 10490 10492 10497 10501 10504 10510 10515 10518 10521 10525 10528 10531 10535 10539 10540 10541 10545 10549 10550 10551 10554 10557 10557 10557 10560 10562 10561 10561 10566 10568 10568 10568 10569 10572 10573 10574 10577 10577 10576 10576 10576 10577 10579 10578 10579 10580 10578 10579 10583 10583 10578 10577 10578 10579 10579 10576 10578 10579 10578 10584 10587 10584 10586 10588 10590 10593 10598 10601 10604
10385 10392 10398 10402 10408 10415 10421 10426 10432 10436 10441 10445 10449 10452 10457 10464 10469 10474 10480 10482 10485 10493 10497 10500 10506 10509 10512 10515 10518 10523 10526 10529 10532 10533 10536 10540 10542 10544 10545 10548 10550 10551 10551 10553 10555 10555 10554 10559 10563 10564 10563 10564 10567 10566 10567 10571 10571 10570 10570 10570 10571 10571 10571 10574 10574 10572 10573 10575 10574 10571 10573 10574 10572 10570 10569 10571 10574 10573 10576 10579 10578 10580 10584 10585 10588 10591 10595 10600
10383 10390 10396 10400 10406 10412 10417 10422 10427 10432 10437 10441 10444 10448 10454 10461 10464 10469 10474 10475 10481 10490 10494 10497 10501 10501 10505 10508 10512 10518 10521 10523 10527 10528 10530 10533 10535 10538 10539 10541 10545 10546 10545 10545 10548 10549 10549 10552 10557 10559 10557 10557 10562 10561 10561 10565 10565 10564 10565 10564 10565 10563 10563 10568 10567 10564 10566 10567 10567 10566 10567 10567 10565 10564 10564 10566 10569 10567 10569 10574 10575 10575 10577 10580 10582 10586 10591 10596
10381 10387 10393 10398 10402 10408 10414 10419 10423 10428 10433 10437 10440 10445 10451 10455 10459 10464 10467 10469 10478 10486 10488 10491 10494 10495 10500 10502 10506 10514 10515 10517 10521 10522 10524 10527 10529 10532 10533 10535 10539 10539 10537 10538 10542 10542 10544 10546 10549 10552 10552 10553 10557 10556 10555 10558 10559 10559 10559 10557 10558 10556 10556 10560 10559 10557 10558 10560 10560 10560 10561 10560 10558 10561 10561 10562 10565 10563 10563 10567 10569 10569 10571 10573 10577 10582 10587 10592
10379 10384 10390 10395 10399 10404 10410 10415 10420 10424 10429 10433 10437 10442 10446 10450 10453 10456 10460 10468 10477 10481 10482 10486 10488 10490 10494 10497 10501 10507 10509 10510 10514 10517 10518 10520 10523 10525 10527 10528 10531 10532 10530 10533 10536 10535 10538 10541 10541 10544 10547 10549 10550 10549 10550 10552 10552 10553 10552 10551 10552 10550 10549 10551 10552 10551 10552 10553 10554 10554 10555 10553 10552 10557 10558 10556 10559 10559 10558 10559 10560 10563 10567 10569 10573 10578 10582 10586
10376 10383 10388 10393 10398 10402 10407 10412 10417 10421 10425 10430 10433 10437 10441 10444 10448 10453 10460 10469 10472 10472 10476 10480 10481 10485 10488 10492 10496 10500 10503 10503 10506 10511 10511 10512 10515 10517 10519 10521 10524 10526 10525 10527 10529 10530 10532 10533 10534 10537 10541 10544 10544 10542 10544 10548 10546 10545 10545 10545 10544 10542 10542 10544 10545 10545 10546 10548 10548 10548 10549 10546 10545 10552 10554 10553 10554 10554 10553 10553 10555 10560 10565 10568 10572 10576 10580 10583
10375 10381 10386 10392 10396 10400 10405 10409 10414 10418 10422 10426 10428 10432 10436 10439 10446 10453 10458 10462 10464 10466 10472 10473 10474 10480 10483 10486 10490 10493 10497 10497 10498 10503 10503 10504 10507 10510 10513 10515 10518 10520 10520 10521 10522 10524 10527 10527 10527 10531 10534 10536 10536 10536 10538 10541 10540 10539 10539 10538 10536 10536 10536 10537 10539 10539 10539 10541 10542 10541 10541 10540 10540 10546 10550 10549 10549 10549 10549 10550 10553 10558 10562 10568 10573 10576 10579 10580
10374 10380 10385 10390 10394 10397 10402 10406 10410 10415 10418 10421 10425 10428 10432 10437 10444 10449 10450 10455 10459 10462 10464 10464 10469 10475 10477 10481 10483 10484 10490 10491 10490 10493 10495 10496 10500 10503 10506 10509 10512 10514 10514 10515 10516 10517 10521 10522 10520 10523 10526 10526 10527 10530 10532 10533 10533 10533 10532 10531 10530 10529 10530 10531 10533 10533 10533 10534 10535 10534 10534 10534 10537 10541 10543 10543 10543 10544 10546 10547 10550 10554 10558 10563 10568 10570 10571 10572
10372 10377 10382 10386 10390 10394 10399 10402 10407 10411 10414 10418 10421 10424 10428 10434 10439 10442 10444 10450 10453 10455 10456 10459 10466 10472 10472 10473 10472 10475 10483 10484 10482 10485 10487 10490 10495 10497 10499 10502 10505 10507 10508 10510 10510 10511 10514 10514 10513 10517 10520 10519 10520 10523 10525 10525 10526 10525 10525 10525 10525 10524 10524 10525 10526 10527 10527 10528 10529 10528 10528 10531 10534 10535 10536 10536 10537 10539 10540 10542 10545 10549 10552 10556 10560 10562 10564 10566
10370 10374 10378 10382 10386 10390 10395 10399 10403 10407 10410 10413 10416 10419 10425 10430 10433 10436 10439 10443 10446 10448 10451 10454 10462 10466 10463 10463 10463 10469 10477 10478 10476 10478 10479 10483 10490 10491 10492 10496 10498 10500 10501 10502 10502 10504 10507 10507 10508 10511 10514 10514 10515 10516 10517 10518 10519 10518 10519 10521 10521 10519 10519 10520 10521 10522 10521 10522 10523 10522 10522 10526 10529 10529 10530 10532 10533 10534 10535 10536 10540 10544 10547 10550 10554 10557 10558 10561
10367 10371 10375 10379 10383 10387 10391 10395 10399 10402 10406 10408 10411 10417 10421 10424 10427 10430 10433 10437 10439 10442 10445 10448 10454 10457 10455 10456 10458 10462 10470 10472 10470 10469 10471 10477 10483 10484 10486 10489 10490 10491 10493 10494 10495 10499 10502 10502 10504 10506 10507 10508 10509 10508 10510 10513 10514 10513 10513 10514 10514 10513 10513 10514 10517 10517 10516 10518 10519 10517 10518 10522 10525 10525 10526 10528 10529 10530 10532 10533 10536 10539 10541 10545 10548 10551 10553 10555
10364 10368 10372 10376 10380 10384 10388 10392 10395 10398 10401 10403 10408 10413 10416 10418 10422 10424 10427 10430 10433 10437 10440 10442 10446 10449 10449 10450 10452 10456 10463 10465 10462 10460 10463 10471 10476 10477 10479 10482 10483 10485 10486 10487 10490 10494 10496 10497 10498 10500 10501 10501 10502 10503 10506 10508 10507 10506 10506 10506 10507 10508 10508 10510 10512 10513 10513 10514 10514 10513 10514 10518 10521 10521 10522 10523 10524 10526 10528 10530 10532 10533 10536 10539 10542 10545 10548 10550
10362 10366 10370 10374 10378 10381 10385 10388 10391 10394 10396 10400 10404 10408 10410 10413 10417 10418 10421 10424 10427 10431 10434 10435 10439 10442 10442 10444 10446 10449 10454 10455 10454 10454 10457 10465 10469 10469 10471 10474 10476 10479 10480 10481 10485 10487 10489 10491 10492 10494 10495 10495 10495 10498 10501 10501 10500 10501 10501 10501 10501 10503 10504 10506 10508 10509 10509 10509 10509 10509 10510 10513 10515 10517 10517 10518 10519 10521 10523 10525 10527 10529 10531 10534 10537 10540 10542 10545
10359 10363 10367 10371 10375 10378 10381 10383 10386 10390 10393 10397 10400 10402 10405 10408 10411 10413 10416 10418 10421 10425 10427 10429 10433 10435 10435 10437 10438 10442 10447 10448 10448 10450 10452 10458 10461 10461 10463 10466 10469 10473 10475 10475 10476 10480 10483 10485 10487 10489 10490 10489 10490 10493 10495 10494 10494 10497 10496 10496 10497 10498 10499 10501 10502 10504 10505 10504 10504 10504 10506 10509 10510 10512 10513 10513 10514 10516 10518 10520 10522 10524 10527 10530 10533 10535 10537 10540
10356 10360 10364 10368 10371 10375 10377 10378 10382 10387 10389 10392 10395 10398 10400 10403 10405 10408 10410 10413 10416 10419 10421 10423 10427 10428 10430 10431 10432 10436 10441 10441 10442 10444 10445 10450 10453 10454 10457 10460 10463 10466 10467 10467 10470 10474 10478 10480 10482 10483 10483 10484 10485 10488 10489 10488 10489 10491 10491 10492 10493 10493 10495 10497 10498 10500 10500 10500 10501 10501 10503 10505 10506 10507 10508 10508 10509 10510 10512 10515 10518 10520 10523 10526 10528 10531 10533 10535
10354 10358 10362 10366 10368 10371 10372 10375 10380 10384 10386 10387 10390 10393 10396 10398 10401 10403 10406 10408 10411 10413 10415 10418 10420 10422 10424 10426 10426 10429 10432 10432 10435 10438 10439 10443 10447 10449 10451 10454 10457 10459 10460 10462 10466 10469 10472 10475 10476 10477 10477 10478 10480 10481 10482 10483 10485 10486 10486 10487 10488 10488 10491 10493 10494 10496 10496 10496 10498 10499 10500 10502 10502 10503 10503 10503 10504 10507 10509 10511 10514 10516 10519 10521 10524 10526 10529 10531
10352 10356 10360 10363 10365 10367 10369 10373 10377 10380 10382 10384 10386 10389 10391 10394 10396 10399 10401 10403 10405 10407 10409 10411 10413 10416 10418 10419 10420 10422 10424 10426 10428 10431 10433 10437 10442 10445 10446 10448 10452 10453 10455 10458 10461 10463 10466 10468 10470 10471 10471 10473 10474 10475 10476 10478 10480 10480 10481 10483 10484 10485 10487 10489 10491 10493 10493 10493 10494 10496 10497 10498 10498 10498 10498 10499 10501 10503 10505 10507 10510 10512 10514 10517 10520 10522 10524 10526
10351 10355 10359 10361 10363 10364 10366 10370 10373 10376 10379 10381 10382 10385 10388 10389 10392 10394 10396 10398 10399 10401 10403 10405 10407 10409 10411 10413 10414 10415 10418 10419 10421 10425 10429 10432 10436 10438 10439 10442 10446 10448 10450 10453 10455 10458 10461 10462 10463 10465 10465 10467 10469 10470 10472 10473 10473 10475 10477 10480 10481 10481 10483 10485 10487 10489 10489 10488 10490 10493 10493 10493 10493 10494 10495 10495 10497 10499 10501 10503 10505 10508 10510 10513 10515 10518 10520 10522
10349 10353 10356 10358 10360 10362 10364 10367 10370 10373 10375 10376 10378 10381 10383 10385 10387 10389 10391 10392 10393 10395 10397 10399 10400 10402 10404 10406 10408 10410 10412 10413 10416 10420 10423 10425 10429 10431 10433 10437 10441 10442 10444 10448 10451 10453 10454 10454 10456 10458 10459 10460 10462 10465 10467 10467 10467 10470 10473 10475 10475 10476 10479 10481 10483 10484 10485 10485 10486 10488 10488 10488 10489 10491 10492 10492 10493 10496 10497 10499 10501 10503 10506 10508 10510 10513 10515 10518
10346 10350 10352 10355 10357 10360 10362 10364 10367 10369 10371 10373 10375 10377 10379 10380 10382 10384 10385 10386 10388 10389 10391 10392 10395 10397 10398 10400 10402 10405 10407 10409 10412 10415 10417 10419 10422 10425 10428 10432 10434 10436 10438 10442 10445 10446 10444 10445 10449 10451 10452 10454 10455 10458 10461 10461 10462 10466 10467 10467 10468 10470 10474 10477 10478 10479 10480 10481 10483 10484 10484 10486 10486 10486 10487 10488 10489 10492 10493 10496 10498 10499 10501 10503 10505 10508 10511 10514
10344 10346 10349 10351 10355 10357 10359 10361 10363 10365 10367 10369 10371 10373 10374 10376 10377 10379 10380 10381 10382 10384 10386 10388 10390 10392 10394 10396 10398 10401 10404 10406 10408 10409 10411 10414 10416 10419 10422 10425 10427 10428 10430 10434 10437 10438 10436 10438 10442 10444 10445 10446 10449 10453 10455 10455 10457 10461 10460 10459 10462 10465 10468 10472 10474 10475 10476 10477 10479 10479 10480 10481 10482 10482 10483 10484 10486 10488 10489 10492 10494 10496 10497 10499 10501 10504 10507 10509
10341 10344 10346 10348 10351 10354 10355 10357 10359 10361 10363 10365 10367 10368 10370 10371 10373 10374 10375 10377 10378 10380 10382 10384 10386 10388 10390 10392 10395 10398 10400 10401 10402 10404 10406 10408 10410 10412 10415 10418 10420 10420 10423 10426 10429 10432 10432 10432 10435 10438 10438 10440 10443 10448 10449 10448 10450 10453 10453 10453 10456 10459 10462 10466 10468 10469 10471 10473 10474 10474 10474 10475 10477 10478 10479 10480 10482 10484 10485 10488 10491 10492 10493 10495 10497 10500 10502 10505